| time (UTC) | temp F | wind direction | speed MPH | gust MPH | rain 1hr in | rain 24hr in | rain mn in | humidity % | barometer mb |
| 20260906205306 | 62 | 3 | 0.0 | 0.0 | 0.00 | 0.00 | 0.00 | 86 | 1019.1 |
| 20260906204805 | 62 | 3 | 0.0 | 0.0 | 0.00 | 0.00 | 0.00 | 86 | 1019.0 |
| 20260906204304 | 62 | 3 | 0.0 | 0.0 | 0.00 | 0.00 | 0.00 | 86 | 1019.0 |
| 20260906203805 | 62 | 3 | 0.0 | 0.0 | 0.00 | 0.00 | 0.00 | 86 | 1018.9 |
| 20260906203305 | 62 | 3 | 0.0 | 0.0 | 0.00 | 0.00 | 0.00 | 86 | 1018.8 |
| 20260906202804 | 62 | 3 | 0.0 | 0.0 | 0.00 | 0.00 | 0.00 | 86 | 1018.8 |
| 20260906202306 | 62 | 3 | 0.0 | 0.0 | 0.00 | 0.00 | 0.00 | 86 | 1018.7 |
| 20260906201804 | 62 | 3 | 0.0 | 0.0 | 0.00 | 0.00 | 0.00 | 86 | 1018.7 |
| 20260906201304 | 62 | 3 | 0.0 | 0.0 | 0.00 | 0.00 | 0.00 | 86 | 1018.6 |
| 20260906200804 | 62 | 3 | 0.0 | 0.0 | 0.00 | 0.00 | 0.00 | 86 | 1018.5 |
| 20260906200304 | 62 | 3 | 0.0 | 0.0 | 0.00 | 0.00 | 0.00 | 86 | 1018.3 |
| 20260906195306 | 62 | 3 | 0.0 | 0.0 | 0.00 | 0.00 | 0.00 | 86 | 1018.2 |
| 20260906194804 | 62 | 3 | 0.0 | 0.0 | 0.00 | 0.00 | 0.00 | 86 | 1018.1 |
| 20260906193804 | 62 | 3 | 0.0 | 0.0 | 0.00 | 0.00 | 0.00 | 86 | 1018.1 |
| 20260906193305 | 62 | 3 | 0.0 | 0.0 | 0.00 | 0.00 | 0.00 | 86 | 1018.0 |
| 20260906192804 | 62 | 3 | 0.0 | 0.0 | 0.00 | 0.00 | 0.00 | 86 | 1017.9 |
| 20260906192307 | 62 | 3 | 0.0 | 0.0 | 0.00 | 0.00 | 0.00 | 86 | 1017.9 |
| 20260906191804 | 62 | 3 | 0.0 | 0.0 | 0.00 | 0.00 | 0.00 | 86 | 1017.8 |
| 20260906191304 | 62 | 3 | 0.0 | 0.0 | 0.00 | 0.00 | 0.00 | 86 | 1017.8 |
| 20260906190805 | 62 | 3 | 0.0 | 0.0 | 0.00 | 0.00 | 0.00 | 86 | 1017.7 |
| 20260906185805 | 62 | 3 | 0.0 | 0.0 | 0.00 | 0.00 | 0.00 | 86 | 1017.6 |
| 20260906185306 | 62 | 3 | 0.0 | 0.0 | 0.00 | 0.00 | 0.00 | 86 | 1017.6 |
| 20260906184804 | 62 | 3 | 0.0 | 0.0 | 0.00 | 0.00 | 0.00 | 86 | 1017.6 |
| 20260906183805 | 62 | 3 | 0.0 | 0.0 | 0.00 | 0.00 | 0.00 | 86 | 1017.6 |
| 20260906183305 | 62 | 3 | 0.0 | 0.0 | 0.00 | 0.00 | 0.00 | 86 | 1017.7 |
| 20260906182805 | 62 | 3 | 0.0 | 0.0 | 0.00 | 0.00 | 0.00 | 86 | 1017.6 |
| 20260906181805 | 62 | 3 | 0.0 | 0.0 | 0.00 | 0.00 | 0.00 | 86 | 1017.6 |
| 20260906181305 | 62 | 3 | 0.0 | 0.0 | 0.00 | 0.00 | 0.00 | 86 | 1017.6 |
| 20260906180805 | 62 | 3 | 0.0 | 0.0 | 0.00 | 0.00 | 0.00 | 86 | 1017.6 |
| 20260906180304 | 62 | 3 | 0.0 | 0.0 | 0.00 | 0.00 | 0.00 | 86 | 1017.7 |
| 20260906175804 | 62 | 3 | 0.0 | 0.0 | 0.00 | 0.00 | 0.00 | 86 | 1017.7 |
| 20260906175306 | 62 | 3 | 0.0 | 0.0 | 0.00 | 0.00 | 0.00 | 86 | 1017.7 |
| 20260906174304 | 62 | 3 | 0.0 | 0.0 | 0.00 | 0.00 | 0.00 | 86 | 1017.7 |
| 20260906173804 | 62 | 3 | 0.0 | 0.0 | 0.00 | 0.00 | 0.00 | 86 | 1017.6 |
| 20260906173304 | 62 | 3 | 0.0 | 0.0 | 0.00 | 0.00 | 0.00 | 86 | 1017.6 |
| 20260906172306 | 62 | 3 | 0.0 | 0.0 | 0.00 | 0.00 | 0.00 | 86 | 1017.6 |
| 20260906171804 | 62 | 3 | 0.0 | 0.0 | 0.00 | 0.00 | 0.00 | 86 | 1017.6 |
| 20260906171304 | 62 | 3 | 0.0 | 0.0 | 0.00 | 0.00 | 0.00 | 86 | 1017.7 |
| 20260906170805 | 62 | 3 | 0.0 | 0.0 | 0.00 | 0.00 | 0.00 | 86 | 1017.7 |
| 20260906170305 | 62 | 3 | 0.0 | 0.0 | 0.00 | 0.00 | 0.00 | 86 | 1017.7 |
| 20260906165804 | 62 | 3 | 0.0 | 0.0 | 0.00 | 0.00 | 0.00 | 86 | 1017.7 |
| 20260906165306 | 62 | 3 | 0.0 | 0.0 | 0.00 | 0.00 | 0.00 | 86 | 1017.7 |
| 20260906164304 | 62 | 3 | 0.0 | 0.0 | 0.00 | 0.00 | 0.00 | 86 | 1017.7 |
| 20260906163805 | 62 | 3 | 0.0 | 0.0 | 0.00 | 0.00 | 0.00 | 86 | 1017.8 |
| 20260906162805 | 62 | 3 | 0.0 | 0.0 | 0.00 | 0.00 | 0.00 | 86 | 1017.8 |
| 20260906160806 | 62 | 32 | 1.0 | 3.0 | 0.00 | 0.00 | 0.00 | 86 | 1017.9 |
| 20260906160304 | 62 | 32 | 2.0 | 5.0 | 0.00 | 0.00 | 0.00 | 86 | 1017.8 |
| 20260906155805 | 62 | 34 | 2.0 | 3.0 | 0.00 | 0.00 | 0.00 | 86 | 1017.8 |
| 20260906155306 | 62 | 35 | 1.0 | 3.0 | 0.00 | 0.00 | 0.00 | 86 | 1017.9 |
| 20260906154804 | 62 | 35 | 1.0 | 3.0 | 0.00 | 0.00 | 0.00 | 86 | 1017.9 |
| 20260906154304 | 62 | 36 | 0.0 | 0.0 | 0.00 | 0.00 | 0.00 | 86 | 1017.8 |
| 20260906153304 | 62 | 36 | 0.0 | 1.0 | 0.00 | 0.00 | 0.00 | 86 | 1018.0 |
| 20260906152804 | 61 | 36 | 2.0 | 3.0 | 0.00 | 0.00 | 0.00 | 86 | 1018.1 |
| 20260906152306 | 61 | 37 | 1.0 | 3.0 | 0.00 | 0.00 | 0.00 | 86 | 1018.2 |
| 20260906151804 | 61 | 37 | 0.0 | 0.0 | 0.00 | 0.00 | 0.00 | 85 | 1018.2 |
| 20260906151304 | 61 | 37 | 0.0 | 0.0 | 0.00 | 0.00 | 0.00 | 85 | 1018.2 |
| 20260906150804 | 61 | 37 | 1.0 | 3.0 | 0.00 | 0.00 | 0.00 | 85 | 1018.2 |
| 20260906145804 | 61 | 37 | 2.0 | 3.0 | 0.00 | 0.00 | 0.00 | 85 | 1018.2 |
| 20260906145306 | 61 | 38 | 3.0 | 5.0 | 0.00 | 0.00 | 0.00 | 85 | 1018.3 |
| 20260906144304 | 62 | 60 | 3.0 | 5.0 | 0.00 | 0.00 | 0.00 | 85 | 1018.3 |
| 20260906143804 | 61 | 67 | 1.0 | 3.0 | 0.00 | 0.00 | 0.00 | 85 | 1018.4 |
| 20260906143305 | 61 | 70 | 3.0 | 6.0 | 0.00 | 0.00 | 0.00 | 84 | 1018.5 |
| 20260906142805 | 61 | 120 | 1.0 | 3.0 | 0.00 | 0.00 | 0.00 | 84 | 1018.6 |
| 20260906142306 | 60 | 130 | 0.0 | 3.0 | 0.00 | 0.00 | 0.00 | 83 | 1018.6 |
| 20260906140804 | 60 | 157 | 0.0 | 0.0 | 0.00 | 0.00 | 0.00 | 81 | 1018.7 |
| 20260906140304 | 60 | 157 | 0.0 | 0.0 | 0.00 | 0.00 | 0.00 | 81 | 1018.8 |
| 20260906135804 | 60 | 157 | 0.0 | 0.0 | 0.00 | 0.00 | 0.00 | 81 | 1018.8 |
| 20260906135306 | 60 | 157 | 0.0 | 0.0 | 0.00 | 0.00 | 0.00 | 81 | 1018.8 |
| 20260906134804 | 61 | 157 | 0.0 | 0.0 | 0.00 | 0.00 | 0.00 | 81 | 1018.8 |
| 20260906133305 | 61 | 157 | 0.0 | 0.0 | 0.00 | 0.00 | 0.00 | 81 | 1019.0 |
| 20260906132805 | 61 | 157 | 0.0 | 0.0 | 0.00 | 0.00 | 0.00 | 81 | 1019.0 |
| 20260906132306 | 61 | 157 | 0.0 | 0.0 | 0.00 | 0.00 | 0.00 | 81 | 1019.0 |
| 20260906131804 | 61 | 157 | 0.0 | 1.0 | 0.00 | 0.00 | 0.00 | 81 | 1019.1 |
| 20260906131304 | 61 | 157 | 1.0 | 3.0 | 0.00 | 0.00 | 0.00 | 81 | 1019.1 |
| 20260906130804 | 61 | 159 | 2.0 | 6.0 | 0.00 | 0.00 | 0.00 | 82 | 1019.1 |
| 20260906130304 | 61 | 166 | 2.0 | 6.0 | 0.00 | 0.00 | 0.00 | 83 | 1019.0 |
| 20260906125804 | 61 | 76 | 2.0 | 3.0 | 0.00 | 0.00 | 0.00 | 83 | 1019.0 |
| 20260906125306 | 61 | 5 | 1.0 | 3.0 | 0.00 | 0.00 | 0.00 | 84 | 1019.0 |
| 20260906124305 | 62 | 5 | 0.0 | 0.0 | 0.00 | 0.00 | 0.00 | 84 | 1019.0 |
| 20260906123804 | 62 | 5 | 0.0 | 0.0 | 0.00 | 0.00 | 0.00 | 84 | 1019.0 |
| 20260906123305 | 62 | 5 | 0.0 | 1.0 | 0.00 | 0.00 | 0.00 | 85 | 1019.0 |
| 20260906122306 | 63 | 5 | 0.0 | 2.0 | 0.00 | 0.00 | 0.00 | 85 | 1019.0 |
| 20260906121805 | 63 | 5 | 1.0 | 2.0 | 0.00 | 0.00 | 0.00 | 85 | 1019.1 |
| 20260906121305 | 63 | 5 | 2.0 | 3.0 | 0.00 | 0.00 | 0.00 | 85 | 1019.0 |
| 20260906120804 | 63 | 5 | 2.0 | 3.0 | 0.00 | 0.00 | 0.00 | 85 | 1019.0 |
| 20260906120304 | 63 | 5 | 2.0 | 3.0 | 0.00 | 0.00 | 0.00 | 85 | 1019.1 |
| 20260906115804 | 63 | 5 | 3.0 | 3.0 | 0.00 | 0.00 | 0.00 | 85 | 1019.1 |
| 20260906114805 | 63 | 5 | 1.0 | 3.0 | 0.00 | 0.00 | 0.00 | 85 | 1019.0 |
| 20260906114304 | 63 | 5 | 1.0 | 3.0 | 0.00 | 0.00 | 0.00 | 84 | 1019.1 |
| 20260906113804 | 63 | 5 | 0.0 | 2.0 | 0.00 | 0.00 | 0.00 | 84 | 1019.1 |
| 20260906113305 | 63 | 5 | 0.0 | 2.0 | 0.00 | 0.00 | 0.00 | 84 | 1019.1 |
| 20260906112804 | 63 | 5 | 3.0 | 3.0 | 0.00 | 0.00 | 0.00 | 84 | 1019.2 |
| 20260906112307 | 63 | 5 | 1.0 | 3.0 | 0.00 | 0.00 | 0.00 | 83 | 1019.1 |
| 20260906111804 | 63 | 5 | 1.0 | 3.0 | 0.00 | 0.00 | 0.00 | 83 | 1019.1 |
| 20260906111305 | 63 | 5 | 1.0 | 2.0 | 0.00 | 0.00 | 0.00 | 83 | 1019.0 |
| 20260906110804 | 63 | 5 | 1.0 | 3.0 | 0.00 | 0.00 | 0.00 | 83 | 1019.0 |
| 20260906110305 | 64 | 5 | 0.0 | 0.0 | 0.00 | 0.00 | 0.00 | 83 | 1019.0 |
| 20260906105306 | 64 | 5 | 1.0 | 3.0 | 0.00 | 0.00 | 0.00 | 83 | 1018.8 |
| 20260906104806 | 64 | 5 | 1.0 | 3.0 | 0.00 | 0.00 | 0.00 | 83 | 1018.8 |
| 20260906104304 | 64 | 5 | 1.0 | 3.0 | 0.00 | 0.00 | 0.00 | 83 | 1018.7 |
| 20260906103804 | 64 | 5 | 2.0 | 3.0 | 0.00 | 0.00 | 0.00 | 83 | 1018.6 |
| 20260906103304 | 65 | 5 | 1.0 | 3.0 | 0.00 | 0.00 | 0.00 | 83 | 1018.6 |
| 20260906102805 | 65 | 5 | 1.0 | 3.0 | 0.00 | 0.00 | 0.00 | 83 | 1018.6 |
| 20260906101806 | 65 | 5 | 3.0 | 7.0 | 0.00 | 0.00 | 0.00 | 82 | 1018.5 |
| 20260906101305 | 65 | 17 | 2.0 | 5.0 | 0.00 | 0.00 | 0.00 | 82 | 1018.5 |
| 20260906100805 | 65 | 21 | 3.0 | 5.0 | 0.00 | 0.00 | 0.00 | 82 | 1018.5 |
| 20260906100305 | 65 | 7 | 4.0 | 9.0 | 0.00 | 0.00 | 0.00 | 82 | 1018.3 |
| 20260906095805 | 66 | 5 | 2.0 | 6.0 | 0.00 | 0.00 | 0.00 | 82 | 1018.4 |
| 20260906095306 | 66 | 5 | 2.0 | 8.0 | 0.00 | 0.00 | 0.00 | 82 | 1018.3 |
| 20260906094805 | 66 | 17 | 3.0 | 5.0 | 0.00 | 0.00 | 0.00 | 81 | 1018.2 |
| 20260906094305 | 66 | 22 | 3.0 | 6.0 | 0.00 | 0.00 | 0.00 | 81 | 1018.2 |
| 20260906093305 | 66 | 29 | 4.0 | 6.0 | 0.00 | 0.00 | 0.00 | 81 | 1018.0 |
| 20260906092804 | 66 | 29 | 3.0 | 6.0 | 0.00 | 0.00 | 0.00 | 80 | 1018.0 |
| 20260906092306 | 67 | 44 | 3.0 | 7.0 | 0.00 | 0.00 | 0.00 | 80 | 1017.9 |
| 20260906091804 | 67 | 19 | 3.0 | 7.0 | 0.00 | 0.00 | 0.00 | 80 | 1017.9 |
| 20260906091304 | 67 | 15 | 3.0 | 7.0 | 0.00 | 0.00 | 0.00 | 80 | 1017.8 |
| 20260906090805 | 68 | 31 | 4.0 | 6.0 | 0.00 | 0.00 | 0.00 | 80 | 1017.7 |
| 20260906090305 | 68 | 36 | 3.0 | 8.0 | 0.00 | 0.00 | 0.00 | 80 | 1017.7 |
| 20260906085804 | 68 | 11 | 3.0 | 9.0 | 0.00 | 0.00 | 0.00 | 79 | 1017.7 |
| 20260906085306 | 69 | 10 | 5.0 | 9.0 | 0.00 | 0.00 | 0.00 | 79 | 1017.6 |
| 20260906084804 | 69 | 24 | 5.0 | 8.0 | 0.00 | 0.00 | 0.00 | 78 | 1017.6 |
| 20260906084305 | 69 | 6 | 3.0 | 8.0 | 0.00 | 0.00 | 0.00 | 78 | 1017.6 |
| 20260906083804 | 70 | 4 | 3.0 | 6.0 | 0.00 | 0.00 | 0.00 | 78 | 1017.5 |
| 20260906083305 | 70 | 3 | 4.0 | 8.0 | 0.00 | 0.00 | 0.00 | 77 | 1017.4 |
| 20260906082306 | 71 | 26 | 3.0 | 6.0 | 0.00 | 0.00 | 0.00 | 76 | 1017.3 |
| 20260906081804 | 72 | 22 | 4.0 | 7.0 | 0.00 | 0.00 | 0.00 | 74 | 1017.2 |
| 20260906081304 | 72 | 4 | 4.0 | 8.0 | 0.00 | 0.00 | 0.00 | 74 | 1017.1 |
| 20260906080804 | 73 | 27 | 4.0 | 6.0 | 0.00 | 0.00 | 0.00 | 73 | 1017.1 |
| 20260906080304 | 73 | 34 | 4.0 | 9.0 | 0.00 | 0.00 | 0.00 | 72 | 1017.0 |
| 20260906075306 | 74 | 20 | 3.0 | 9.0 | 0.00 | 0.00 | 0.00 | 70 | 1016.7 |
| 20260906074806 | 74 | 13 | 5.0 | 9.0 | 0.00 | 0.00 | 0.00 | 70 | 1016.7 |
| 20260906074304 | 75 | 14 | 3.0 | 7.0 | 0.00 | 0.00 | 0.00 | 70 | 1016.6 |
| 20260906073304 | 76 | 32 | 4.0 | 9.0 | 0.00 | 0.00 | 0.00 | 68 | 1016.4 |
| 20260906072804 | 76 | 15 | 5.0 | 12.0 | 0.00 | 0.00 | 0.00 | 67 | 1016.3 |
| 20260906072306 | 77 | 32 | 5.0 | 10.0 | 0.00 | 0.00 | 0.00 | 66 | 1016.2 |
| 20260906071804 | 77 | 18 | 6.0 | 10.0 | 0.00 | 0.00 | 0.00 | 65 | 1016.3 |
| 20260906071304 | 77 | 44 | 4.0 | 10.0 | 0.00 | 0.00 | 0.00 | 64 | 1016.2 |
| 20260906070804 | 77 | 24 | 4.0 | 8.0 | 0.00 | 0.00 | 0.00 | 64 | 1016.2 |
| 20260906070304 | 78 | 32 | 6.0 | 12.0 | 0.00 | 0.00 | 0.00 | 63 | 1016.2 |
| 20260906065804 | 78 | 42 | 5.0 | 12.0 | 0.00 | 0.00 | 0.00 | 63 | 1016.0 |
| 20260906065305 | 78 | 44 | 5.0 | 8.0 | 0.00 | 0.00 | 0.00 | 61 | 1016.0 |
| 20260906064804 | 78 | 61 | 7.0 | 12.0 | 0.00 | 0.00 | 0.00 | 61 | 1015.9 |
| 20260906064304 | 79 | 33 | 4.0 | 9.0 | 0.00 | 0.00 | 0.00 | 60 | 1015.8 |
| 20260906063804 | 79 | 3 | 6.0 | 12.0 | 0.00 | 0.00 | 0.00 | 60 | 1015.8 |
| 20260906063305 | 79 | 42 | 7.0 | 12.0 | 0.00 | 0.00 | 0.00 | 60 | 1015.8 |
| 20260906062804 | 79 | 43 | 4.0 | 12.0 | 0.00 | 0.00 | 0.00 | 59 | 1015.7 |
| 20260906062306 | 80 | 43 | 4.0 | 12.0 | 0.00 | 0.00 | 0.00 | 59 | 1015.6 |
| 20260906061804 | 80 | 54 | 7.0 | 14.0 | 0.00 | 0.00 | 0.00 | 58 | 1015.5 |
| 20260906061304 | 80 | 37 | 4.0 | 9.0 | 0.00 | 0.00 | 0.00 | 58 | 1015.5 |
| 20260906060805 | 80 | 80 | 7.0 | 12.0 | 0.00 | 0.00 | 0.00 | 57 | 1015.5 |
| 20260906060305 | 80 | 35 | 5.0 | 13.0 | 0.00 | 0.00 | 0.00 | 57 | 1015.4 |
| 20260906055805 | 80 | 59 | 7.0 | 10.0 | 0.00 | 0.00 | 0.00 | 57 | 1015.4 |
| 20260906055306 | 80 | 47 | 6.0 | 10.0 | 0.00 | 0.00 | 0.00 | 57 | 1015.3 |
| 20260906054805 | 80 | 52 | 3.0 | 12.0 | 0.00 | 0.00 | 0.00 | 57 | 1015.4 |
| 20260906054304 | 80 | 49 | 5.0 | 10.0 | 0.00 | 0.00 | 0.00 | 58 | 1015.3 |
| 20260906053805 | 80 | 37 | 7.0 | 15.0 | 0.00 | 0.00 | 0.00 | 58 | 1015.3 |
| 20260906053304 | 81 | 51 | 7.0 | 14.0 | 0.00 | 0.00 | 0.00 | 57 | 1015.3 |
| 20260906052804 | 81 | 72 | 6.0 | 10.0 | 0.00 | 0.00 | 0.00 | 57 | 1015.3 |
| 20260906052306 | 81 | 36 | 3.0 | 12.0 | 0.00 | 0.00 | 0.00 | 57 | 1015.3 |
| 20260906051805 | 81 | 69 | 7.0 | 12.0 | 0.00 | 0.00 | 0.00 | 57 | 1015.3 |
| 20260906050304 | 83 | 87 | 12.0 | 16.0 | 0.00 | 0.00 | 0.00 | 43 | 1015.5 |
| 20260906045804 | 82 | 132 | 6.0 | 12.0 | 0.00 | 0.00 | 0.00 | 43 | 1015.4 |
| 20260906045306 | 82 | 109 | 8.0 | 13.0 | 0.00 | 0.00 | 0.00 | 44 | 1015.6 |
| 20260906044805 | 82 | 101 | 10.0 | 13.0 | 0.00 | 0.00 | 0.00 | 44 | 1015.7 |
| 20260906044305 | 82 | 118 | 5.0 | 13.0 | 0.00 | 0.00 | 0.00 | 45 | 1015.7 |
| 20260906043805 | 82 | 100 | 10.0 | 12.0 | 0.00 | 0.00 | 0.00 | 44 | 1015.8 |
| 20260906043304 | 82 | 94 | 11.0 | 13.0 | 0.00 | 0.00 | 0.00 | 44 | 1015.8 |
| 20260906042804 | 82 | 105 | 7.0 | 13.0 | 0.00 | 0.00 | 0.00 | 44 | 1015.8 |
| 20260906041804 | 83 | 93 | 8.0 | 13.0 | 0.00 | 0.00 | 0.00 | 43 | 1016.1 |
| 20260906041305 | 83 | 126 | 9.0 | 15.0 | 0.00 | 0.00 | 0.00 | 40 | 1016.0 |
| 20260906040305 | 82 | 53 | 4.0 | 9.0 | 0.00 | 0.00 | 0.00 | 41 | 1016.1 |
| 20260906034805 | 82 | 49 | 5.0 | 12.0 | 0.00 | 0.00 | 0.00 | 43 | 1016.4 |
| 20260906034304 | 82 | 135 | 5.0 | 10.0 | 0.00 | 0.00 | 0.00 | 43 | 1016.4 |
| 20260906033305 | 82 | 99 | 7.0 | 13.0 | 0.00 | 0.00 | 0.00 | 45 | 1016.4 |
| 20260906032306 | 82 | 80 | 8.0 | 10.0 | 0.00 | 0.00 | 0.00 | 42 | 1016.6 |
| 20260906031804 | 82 | 111 | 6.0 | 10.0 | 0.00 | 0.00 | 0.00 | 41 | 1016.6 |
| 20260906031304 | 82 | 107 | 5.0 | 12.0 | 0.00 | 0.00 | 0.00 | 42 | 1016.7 |
| 20260906030804 | 82 | 174 | 8.0 | 12.0 | 0.00 | 0.00 | 0.00 | 42 | 1016.8 |
| 20260906030305 | 81 | 103 | 3.0 | 12.0 | 0.00 | 0.00 | 0.00 | 41 | 1016.9 |
| 20260906025805 | 81 | 155 | 10.0 | 12.0 | 0.00 | 0.00 | 0.00 | 41 | 1017.1 |
| 20260906025306 | 81 | 137 | 6.0 | 14.0 | 0.00 | 0.00 | 0.00 | 44 | 1017.3 |
| 20260906024805 | 81 | 71 | 2.0 | 8.0 | 0.00 | 0.00 | 0.00 | 46 | 1017.2 |
| 20260906024304 | 80 | 92 | 5.0 | 13.0 | 0.00 | 0.00 | 0.00 | 44 | 1017.4 |
| 20260906023804 | 80 | 103 | 9.0 | 15.0 | 0.00 | 0.00 | 0.00 | 47 | 1017.5 |
| 20260906023305 | 80 | 149 | 3.0 | 8.0 | 0.00 | 0.00 | 0.00 | 50 | 1017.6 |
| 20260906022307 | 79 | 84 | 5.0 | 9.0 | 0.00 | 0.00 | 0.00 | 50 | 1017.9 |
| 20260906021804 | 79 | 72 | 5.0 | 12.0 | 0.00 | 0.00 | 0.00 | 50 | 1018.1 |
| 20260906021306 | 79 | 86 | 1.0 | 9.0 | 0.00 | 0.00 | 0.00 | 54 | 1018.2 |
| 20260906020804 | 78 | 112 | 1.0 | 10.0 | 0.00 | 0.00 | 0.00 | 50 | 1018.5 |
| 20260906020304 | 78 | 75 | 8.0 | 15.0 | 0.00 | 0.00 | 0.00 | 50 | 1018.6 |
| 20260906015804 | 79 | 53 | 1.0 | 6.0 | 0.00 | 0.00 | 0.00 | 51 | 1018.7 |
| 20260906015306 | 78 | 50 | 2.0 | 7.0 | 0.00 | 0.00 | 0.00 | 50 | 1018.8 |
| 20260906014804 | 78 | 60 | 6.0 | 10.0 | 0.00 | 0.00 | 0.00 | 50 | 1019.0 |
| 20260906014304 | 78 | 43 | 2.0 | 6.0 | 0.00 | 0.00 | 0.00 | 51 | 1019.0 |
| 20260906013805 | 78 | 57 | 2.0 | 7.0 | 0.00 | 0.00 | 0.00 | 55 | 1019.1 |
| 20260906012804 | 77 | 126 | 5.0 | 9.0 | 0.00 | 0.00 | 0.00 | 53 | 1019.6 |
| 20260906012306 | 77 | 167 | 2.0 | 8.0 | 0.00 | 0.00 | 0.00 | 52 | 1019.6 |
| 20260906011804 | 77 | 140 | 5.0 | 9.0 | 0.00 | 0.00 | 0.00 | 53 | 1019.8 |
| 20260906011304 | 76 | 355 | 4.0 | 7.0 | 0.00 | 0.00 | 0.00 | 53 | 1019.8 |
| 20260906010304 | 76 | 59 | 3.0 | 6.0 | 0.00 | 0.00 | 0.00 | 53 | 1020.1 |
| 20260906005306 | 75 | 99 | 5.0 | 10.0 | 0.00 | 0.00 | 0.00 | 54 | 1020.3 |
| 20260906004805 | 75 | 15 | 4.0 | 8.0 | 0.00 | 0.00 | 0.00 | 54 | 1020.3 |
| 20260906004304 | 75 | 69 | 6.0 | 10.0 | 0.00 | 0.00 | 0.00 | 55 | 1020.5 |
| 20260906003804 | 74 | 106 | 5.0 | 8.0 | 0.00 | 0.00 | 0.00 | 60 | 1020.5 |
| 20260906003304 | 74 | 190 | 3.0 | 7.0 | 0.00 | 0.00 | 0.00 | 60 | 1020.7 |
| 20260906002804 | 74 | 55 | 1.0 | 6.0 | 0.00 | 0.00 | 0.00 | 86 | 1020.7 |
| 20260906002306 | 60 | 3 | 0.0 | 0.0 | 0.00 | 0.00 | 0.00 | 86 | 1020.9 |
| 20260906001306 | 60 | 2 | 0.0 | 0.0 | 0.00 | 0.00 | 0.00 | 86 | 1021.0 |
| 20260906000805 | 60 | 3 | 0.0 | 0.0 | 0.00 | 0.00 | 0.00 | 86 | 1021.0 |
| 20260906000304 | 60 | 3 | 0.0 | 0.0 | 0.00 | 0.00 | 0.00 | 86 | 1021.0 |
| 20260905235804 | 60 | 3 | 0.0 | 0.0 | 0.00 | 0.00 | 0.00 | 86 | 1021.1 |
| 20260905235306 | 60 | 3 | 0.0 | 0.0 | 0.00 | 0.00 | 0.00 | 86 | 1021.1 |
| 20260905234805 | 60 | 3 | 0.0 | 0.0 | 0.00 | 0.00 | 0.00 | 86 | 1021.0 |
| 20260905234305 | 60 | 4 | 0.0 | 0.0 | 0.00 | 0.00 | 0.00 | 86 | 1021.0 |
| 20260905233304 | 60 | 3 | 0.0 | 0.0 | 0.00 | 0.00 | 0.00 | 86 | 1021.0 |
| 20260905232805 | 60 | 3 | 0.0 | 0.0 | 0.00 | 0.00 | 0.00 | 86 | 1021.0 |
| 20260905231804 | 60 | 3 | 0.0 | 0.0 | 0.00 | 0.00 | 0.00 | 86 | 1021.0 |
| 20260905231306 | 60 | 3 | 0.0 | 0.0 | 0.00 | 0.00 | 0.00 | 86 | 1021.1 |
| 20260905230818 | 60 | 3 | 0.0 | 0.0 | 0.00 | 0.00 | 0.00 | 86 | 1021.0 |
| 20260905230305 | 60 | 2 | 0.0 | 0.0 | 0.00 | 0.00 | 0.00 | 86 | 1021.1 |
| 20260905225805 | 60 | 3 | 0.0 | 0.0 | 0.00 | 0.00 | 0.00 | 86 | 1021.1 |
| 20260905225306 | 60 | 3 | 0.0 | 0.0 | 0.00 | 0.00 | 0.00 | 86 | 1021.1 |
| 20260905224805 | 60 | 2 | 0.0 | 0.0 | 0.00 | 0.00 | 0.00 | 86 | 1021.1 |
| 20260905223805 | 60 | 3 | 0.0 | 0.0 | 0.00 | 0.00 | 0.00 | 86 | 1021.1 |
| 20260905223304 | 60 | 3 | 0.0 | 0.0 | 0.00 | 0.00 | 0.00 | 86 | 1021.0 |
| 20260905222804 | 60 | 2 | 0.0 | 0.0 | 0.00 | 0.00 | 0.00 | 86 | 1021.1 |
| 20260905221304 | 60 | 2 | 0.0 | 0.0 | 0.00 | 0.00 | 0.00 | 86 | 1021.0 |
| 20260905220804 | 60 | 3 | 0.0 | 0.0 | 0.00 | 0.00 | 0.00 | 86 | 1021.0 |
| 20260905215306 | 60 | 3 | 0.0 | 0.0 | 0.00 | 0.00 | 0.00 | 86 | 1020.8 |
| 20260905214804 | 60 | 3 | 0.0 | 0.0 | 0.00 | 0.00 | 0.00 | 86 | 1020.7 |
| 20260905214304 | 60 | 3 | 0.0 | 0.0 | 0.00 | 0.00 | 0.00 | 86 | 1020.6 |
| 20260905213804 | 60 | 2 | 0.0 | 0.0 | 0.00 | 0.00 | 0.00 | 86 | 1020.5 |
| 20260905213304 | 60 | 3 | 0.0 | 0.0 | 0.00 | 0.00 | 0.00 | 86 | 1020.4 |
| 20260905212805 | 60 | 3 | 0.0 | 0.0 | 0.00 | 0.00 | 0.00 | 86 | 1020.4 |
| 20260905212306 | 60 | 3 | 0.0 | 0.0 | 0.00 | 0.00 | 0.00 | 86 | 1020.3 |
| 20260905211804 | 60 | 3 | 0.0 | 0.0 | 0.00 | 0.00 | 0.00 | 86 | 1020.2 |
| 20260905211305 | 60 | 3 | 0.0 | 0.0 | 0.00 | 0.00 | 0.00 | 86 | 1020.2 |
| 20260905210804 | 60 | 3 | 0.0 | 0.0 | 0.00 | 0.00 | 0.00 | 86 | 1020.2 |
| 20260905210304 | 60 | 3 | 0.0 | 0.0 | 0.00 | 0.00 | 0.00 | 86 | 1020.1 |